RH
35 34 34 33 33 32 31 29 28 26 24 23 22 21 20 20 20 20 20 21 21 21 21 21 21 21 21 20 20 20 20 21 22 23 24 24 24 25 24 25 25 26 27 27 28 28 29 29 29 30 30 31 31 32 32 32 33 33 33 34 34 34 35 35 35 35 36 36 36 36 36 36 36 36 37 37 37 37 38 38 38 37 37 38 38 38
36 36 35 34 33 32 30 28 26 25 24 22 21 20 20 20 20 21 20 21 22 22 22 22 22 22 22 21 20 20 19 20 21 22 23 23 24 24 25 26 27 28 28 29 30 30 31 31 32 32 33 33 34 34 34 35 35 35 35 36 36 36 36 36 37 37 37 37 37 37 38 38 39 39 39 39 40 40 40 40 41 41 41 41 41 41
38 36 35 34 33 31 29 27 26 24 23 22 21 20 21 21 22 22 22 22 23 23 23 23 23 23 23 21 20 20 19 20 21 22 22 23 24 25 25 26 27 28 29 30 30 31 32 33 33 34 35 36 36 36 36 36 36 37 37 37 37 37 37 37 37 38 38 39 39 40 40 41 41 41 41 42 42 43 43 44 44 44 44 44 44 44
38 36 35 33 32 30 29 27 26 25 23 22 21 21 22 23 24 24 24 24 24 24 24 24 24 23 23 21 21 20 20 21 22 23 24 24 25 26 26 27 28 28 29 30 31 32 33 34 35 36 37 37 37 37 37 37 37 38 38 38 38 38 38 38 38 39 39 40 41 42 42 42 42 42 43 44 45 46 47 47 47 47 47 47 47 46
37 36 35 33 31 30 28 28 26 25 23 22 22 23 24 24 25 25 25 25 25 25 24 24 24 23 22 22 21 21 22 23 24 25 26 26 26 27 28 29 29 30 31 31 32 33 35 36 37 37 37 38 38 38 38 38 38 38 38 38 38 38 39 39 40 40 41 42 43 43 43 43 43 43 45 46 47 48 49 49 49 49 49 49 49 49
36 35 33 32 31 30 28 28 27 25 23 23 24 24 25 26 26 25 25 25 25 25 25 24 24 23 23 23 23 23 24 25 26 27 27 28 28 29 30 31 31 32 32 33 34 35 36 37 37 38 38 38 38 38 39 39 39 39 39 39 40 40 40 41 42 43 44 45 45 44 44 44 44 45 46 48 49 50 50 50 50 50 50 50 50 50
35 34 32 31 30 29 28 28 26 25 23 24 24 25 26 26 26 25 25 25 25 25 24 24 24 24 24 24 25 26 26 27 28 28 29 29 30 31 31 32 33 33 34 35 36 37 37 37 38 38 39 39 39 40 40 40 40 40 40 40 41 42 43 44 44 45 46 46 46 45 45 45 45 46 48 49 50 50 50 50 50 50 50 51 50 50
33 32 31 30 29 28 28 27 26 25 24 25 26 26 26 26 26 26 25 25 25 25 25 24 25 25 25 26 27 28 29 29 30 30 31 31 32 32 32 33 34 35 35 36 37 37 38 38 39 39 40 40 40 41 41 41 41 41 41 41 42 43 44 45 46 47 47 47 47 46 46 46 46 48 49 50 50 50 50 50 50 51 51 51 51 51
31 30 29 29 28 28 28 27 26 25 25 26 26 27 26 26 26 26 26 26 26 26 26 25 26 27 28 28 29 30 31 31 32 32 32 32 33 33 33 34 35 35 36 37 38 38 39 39 40 40 40 40 40 41 41 41 41 41 41 42 42 43 44 45 47 48 48 48 47 47 46 47 48 49 50 51 51 51 51 50 51 51 51 52 51 51
30 29 29 28 28 28 28 27 26 26 26 26 27 27 27 27 26 26 26 26 26 26 27 28 28 29 30 30 31 32 32 33 33 33 33 33 34 34 35 35 36 36 37 38 38 39 39 39 39 39 39 39 40 40 41 41 41 41 41 41 42 43 44 45 47 48 48 48 47 47 46 47 49 50 51 52 52 52 51 51 51 52 52 52 52 51
29 29 28 28 28 28 27 27 26 26 26 27 27 27 27 27 26 26 26 26 27 28 29 30 31 31 32 32 33 33 33 33 34 34 34 34 35 36 36 37 37 37 38 38 38 38 37 37 37 38 38 38 39 40 40 41 41 41 41 41 42 43 44 45 46 47 48 48 47 47 47 48 50 51 53 53 52 52 52 52 52 52 53 53 53 52
29 28 28 28 28 28 27 27 27 27 27 27 27 27 27 27 27 27 28 29 30 30 31 32 33 33 34 34 34 34 34 34 34 34 35 35 36 36 37 37 37 37 37 37 36 36 35 35 35 36 36 37 37 38 39 40 40 40 40 40 41 42 44 45 46 47 48 48 47 47 47 49 50 52 53 53 53 52 52 52 53 53 54 54 53 53
29 29 29 28 28 28 27 27 27 27 27 27 27 27 27 28 29 30 31 32 32 33 33 33 34 34 35 35 36 35 35 35 35 35 35 36 36 37 37 37 37 37 37 36 35 34 33 33 33 34 34 34 35 36 37 37 38 38 39 39 40 42 44 45 46 47 48 48 48 48 48 50 51 52 53 53 53 52 52 52 53 54 54 54 54 54
29 29 29 28 28 27 27 27 27 27 28 28 28 29 30 31 32 33 33 34 34 34 34 34 35 35 36 36 36 36 36 36 36 36 36 36 37 37 38 38 37 37 37 36 35 34 33 33 32 32 32 32 33 33 34 35 35 36 38 39 41 42 43 44 45 46 48 49 49 49 49 50 52 53 53 53 53 53 52 53 53 54 54 54 54 54
29 29 28 28 28 27 27 27 28 28 29 30 31 32 32 33 34 35 35 35 35 35 35 35 35 35 36 36 37 37 37 37 37 37 36 37 37 38 38 38 38 37 37 36 35 34 33 33 32 32 31 31 31 32 32 33 34 36 37 39 40 41 43 44 45 46 48 49 50 51 51 51 52 53 54 54 54 53 53 54 54 55 55 55 55 55
29 29 28 28 27 27 28 28 29 30 31 32 33 34 34 35 36 36 36 36 36 36 36 36 36 36 36 37 37 38 38 38 38 38 38 37 37 38 39 38 38 37 37 36 34 33 33 33 32 32 31 31 31 32 32 33 34 35 36 38 39 41 42 43 45 46 48 50 51 52 52 52 53 54 54 54 54 54 54 54 55 55 55 56 56 57
29 28 27 27 27 28 29 30 31 32 33 34 35 36 36 36 37 37 37 37 37 37 37 37 37 37 37 37 38 39 39 39 40 39 39 38 38 38 39 39 39 38 36 35 34 34 33 33 33 32 32 32 32 32 33 34 34 35 36 36 38 39 41 43 44 46 48 50 52 53 54 54 54 54 54 54 55 55 55 55 56 56 57 57 57 58
28 28 27 28 28 29 30 32 33 34 35 36 36 37 37 37 38 38 38 38 38 38 38 38 38 38 38 38 39 40 41 41 40 40 39 38 38 38 38 39 38 38 36 35 34 34 34 34 33 33 33 33 33 34 34 34 34 35 35 36 38 39 40 42 44 45 47 49 52 53 54 54 54 54 53 54 54 55 55 56 57 58 58 59 60 61
28 28 28 29 30 31 32 34 35 36 37 37 37 37 37 37 38 38 38 39 39 39 39 39 39 39 39 39 40 41 43 42 42 41 40 38 38 37 38 38 38 37 36 35 35 35 35 35 34 34 35 35 35 35 35 35 35 35 36 36 38 39 41 42 43 44 45 47 50 52 54 54 54 54 53 53 53 54 55 57 58 59 60 61 61 62
28 28 29 31 32 33 35 36 37 38 38 38 38 38 38 38 38 39 39 39 39 39 40 40 40 40 40 41 41 42 44 43 43 41 40 39 38 38 38 38 38 38 37 36 36 36 37 36 36 36 37 37 37 37 37 37 37 37 36 37 38 39 41 42 43 43 44 45 47 49 51 53 54 53 52 52 52 53 55 57 59 60 61 62 62 62
28 29 31 33 34 35 36 37 38 38 39 39 39 39 39 39 39 39 39 39 40 40 40 40 41 41 42 42 43 44 44 45 44 42 41 39 38 38 39 39 39 39 38 37 37 38 39 39 39 39 39 39 39 39 39 39 39 38 38 38 38 38 39 41 42 42 43 43 45 46 49 51 52 53 52 51 51 52 54 56 59 61 62 63 63 62
30 31 33 35 36 37 37 38 38 39 40 40 40 40 40 40 40 39 40 40 40 40 41 42 42 43 44 44 44 44 45 45 45 43 41 40 39 39 39 40 40 40 39 39 39 40 41 42 42 42 42 42 42 42 42 41 41 40 40 39 39 38 39 39 40 41 42 43 43 44 46 49 50 51 51 50 50 50 52 54 57 60 62 63 63 62
32 33 35 36 37 38 38 38 39 39 40 40 41 41 41 40 40 40 40 41 41 42 42 43 43 44 44 44 44 45 45 46 45 44 42 41 40 40 40 41 41 40 40 41 41 42 43 44 45 45 45 45 44 44 44 43 43 42 41 40 40 39 39 40 40 41 42 43 43 44 45 47 48 49 50 49 49 49 50 52 55 58 61 62 62 62
34 35 37 37 38 38 39 39 39 40 40 40 41 41 40 41 41 42 43 43 44 44 44 44 44 44 44 44 44 45 45 46 46 45 44 43 42 41 42 42 42 42 41 42 43 44 45 46 47 47 48 47 47 46 45 45 44 43 42 42 41 40 40 40 41 42 43 43 43 43 44 45 46 47 48 48 48 48 48 50 52 55 58 60 61 61
36 37 37 38 38 39 39 40 40 41 40 41 40 40 41 42 44 44 45 46 46 46 45 45 44 44 44 44 45 46 45 46 47 46 45 44 43 43 43 44 43 43 42 43 44 45 46 47 48 49 49 48 48 47 46 45 44 44 43 42 41 41 40 40 41 41 42 42 42 42 43 43 44 45 46 47 47 47 47 48 50 52 56 58 59 59
37 37 38 39 40 40 41 41 41 41 41 42 42 43 44 44 44 44 45 45 46 46 46 45 45 44 44 45 46 46 47 48 48 48 47 47 46 45 45 45 45 45 44 44 44 45 46 46 47 48 49 48 47 46 45 45 44 43 42 42 41 40 40 40 40 40 40 40 40 41 42 43 43 44 45 46 46 46 46 46 47 50 52 54 56 57
38 38 40 40 41 41 41 41 41 41 42 43 43 44 44 44 44 44 45 46 47 47 47 46 46 46 46 46 47 48 49 50 50 50 49 48 48 47 47 47 47 46 45 44 45 45 46 46 47 47 47 47 46 45 45 44 44 43 43 42 41 40 40 39 39 39 39 39 40 40 41 42 43 43 44 44 45 45 45 45 46 47 49 51 53 54
38 39 40 40 40 40 40 40 41 41 42 43 44 45 45 46 46 46 47 47 48 48 48 48 48 48 48 48 48 49 50 51 52 52 51 51 50 49 49 49 49 48 47 46 45 45 45 46 46 46 46 46 46 46 46 46 46 46 44 43 42 41 40 39 39 39 39 39 40 40 41 42 42 43 43 44 44 44 44 45 45 46 47 48 49 50
39 39 39 39 39 39 39 39 40 40 41 43 44 46 47 48 48 49 49 50 50 51 51 51 52 52 52 51 51 51 51 53 53 54 54 53 52 51 51 51 51 51 50 48 46 45 45 46 46 47 47 47 48 48 49 49 49 48 46 45 43 42 41 41 40 40 39 40 40 40 41 41 42 42 42 43 43 43 44 44 44 45 45 46 46 47
38 38 38 38 38 38 38 39 39 40 42 44 46 48 49 50 51 52 52 53 53 54 54 55 55 55 55 54 54 53 54 54 55 56 57 55 54 53 53 54 54 53 52 50 48 45 44 45 46 48 48 49 49 50 51 51 51 50 48 47 45 44 42 42 41 41 40 40 40 40 41 40 41 41 41 42 42 42 43 43 44 44 45 45 45 45
37 36 36 37 37 38 38 39 40 42 44 46 48 50 51 52 53 55 55 56 57 57 58 59 59 59 58 58 57 57 57 57 58 59 60 58 56 55 55 55 55 55 55 53 51 48 45 44 45 48 50 50 51 52 53 53 53 52 50 49 47 46 44 44 43 43 42 41 41 40 40 40 40 40 40 40 41 41 41 42 43 44 44 44 44 44
36 36 37 37 38 39 39 41 42 44 46 48 50 52 53 55 56 57 58 59 60 61 62 62 63 63 62 62 61 61 61 60 61 62 63 61 59 57 56 57 57 57 57 56 54 51 49 46 46 47 49 51 52 53 54 54 54 53 52 51 49 48 47 46 46 45 43 42 42 41 40 40 40 40 40 40 40 40 40 41 42 43 44 44 44 45
37 37 38 39 39 40 42 43 45 46 48 50 52 54 56 57 58 60 61 63 64 65 66 66 66 66 66 65 65 64 64 64 64 65 65 63 61 59 58 58 58 58 58 57 56 54 52 49 48 47 48 50 51 52 54 55 55 54 53 53 52 50 49 49 48 48 46 45 43 42 41 41 41 40 40 40 39 39 39 40 41 42 43 44 44 46
38 39 39 41 42 43 44 46 47 49 50 52 54 56 58 60 61 63 65 66 68 68 69 69 69 69 68 67 67 66 65 66 66 67 67 65 63 62 60 59 59 58 58 58 57 56 54 53 51 50 49 50 51 52 53 54 55 55 54 54 53 52 51 51 51 50 49 47 46 44 43 42 42 42 41 41 40 40 39 39 40 41 43 43 45 48
39 40 41 43 45 46 47 48 49 51 52 54 56 58 61 63 65 67 68 69 70 71 71 71 70 70 69 69 68 67 67 67 68 69 69 67 65 64 61 60 60 59 59 59 58 57 57 55 54 53 52 51 51 51 53 54 55 55 55 54 54 54 54 54 54 53 51 50 48 47 45 44 44 44 43 42 41 41 40 40 40 41 43 44 47 50
41 42 44 45 47 48 49 50 52 54 55 57 59 61 63 65 67 68 70 70 70 71 71 71 71 71 70 70 70 69 68 68 69 70 70 69 67 65 63 62 61 61 60 60 59 58 58 57 56 55 55 53 52 52 52 54 55 55 55 55 55 56 55 56 56 55 54 52 50 49 47 47 46 46 45 44 43 43 42 42 42 42 44 46 49 53
43 45 46 47 49 50 51 53 54 56 59 60 61 63 64 66 67 67 68 69 69 69 70 70 70 71 71 71 71 71 70 70 70 71 71 70 69 67 66 64 63 62 62 61 61 60 59 58 57 56 56 55 54 53 52 53 54 55 56 56 56 57 57 57 57 56 55 53 52 50 49 48 48 48 47 46 45 45 44 43 43 44 45 48 52 56
46 47 48 49 51 52 54 55 57 59 60 62 62 63 63 64 65 65 66 66 67 67 68 68 69 70 71 72 72 72 72 72 71 71 71 71 70 68 67 65 63 63 63 63 62 62 61 59 58 56 56 55 54 54 54 54 54 55 55 56 57 58 58 58 58 57 56 54 53 51 50 49 49 48 47 47 46 46 45 44 45 46 49 52 55 58
48 49 50 51 53 54 56 57 58 59 60 60 60 61 61 62 63 63 64 65 65 66 66 67 68 69 70 71 72 72 72 72 71 71 71 71 70 69 67 66 64 63 63 63 63 63 62 61 59 58 57 55 54 54 55 55 56 56 56 57 57 58 58 58 58 57 57 55 53 51 50 49 49 49 48 48 48 48 48 48 49 52 55 58 59 59
50 51 52 52 54 55 57 57 57 57 57 58 58 59 60 61 61 62 62 63 64 65 65 66 66 67 68 70 71 72 72 71 70 70 70 70 69 68 67 66 65 64 64 64 64 63 63 62 60 59 58 57 56 56 56 56 57 57 57 57 57 57 57 58 58 57 57 55 54 52 51 50 50 50 50 51 51 52 52 54 56 58 60 61 60 58
51 51 52 53 54 54 55 55 55 56 57 58 58 59 60 60 60 60 60 61 61 62 63 64 64 65 66 68 69 70 71 70 70 69 69 68 68 67 66 65 64 64 64 64 64 63 63 62 61 60 60 59 58 58 57 56 56 57 57 58 58 58 57 58 58 57 56 55 54 53 52 52 52 53 55 56 57 58 59 60 61 62 61 60 58 56
51 52 53 53 53 53 53 53 55 56 57 58 59 59 59 59 59 59 58 59 59 60 60 61 62 62 63 64 66 67 69 69 69 68 67 67 66 66 65 64 64 65 65 64 63 63 63 63 63 62 61 60 59 58 56 55 55 57 59 60 60 60 59 59 58 57 57 55 54 53 54 56 58 59 61 62 64 64 64 64 64 63 61 58 56 55
52 52 52 52 52 52 53 54 56 57 58 59 59 59 58 58 58 58 58 58 58 58 59 60 60 61 61 61 62 64 65 66 67 67 66 65 65 65 64 65 65 65 65 64 64 63 63 63 63 62 61 60 58 57 57 57 59 61 65 66 67 66 66 63 61 59 58 57 56 57 59 62 64 66 67 68 68 68 67 65 63 61 58 56 55 55
52 52 51 51 51 52 54 56 57 59 59 59 58 57 57 57 57 58 58 58 59 59 60 60 60 60 60 61 61 62 62 63 63 64 64 64 64 64 65 65 66 66 66 65 65 64 63 62 61 60 59 59 60 61 62 65 67 71 74 74 74 73 72 70 67 64 62 61 62 64 66 68 69 70 71 70 69 68 65 63 61 59 57 56 56 57
51 51 50 51 52 54 56 58 59 59 59 58 57 56 56 57 57 58 58 59 59 59 60 60 61 61 60 61 61 61 61 61 61 62 62 63 64 65 65 66 66 66 66 65 64 63 61 60 59 58 59 62 64 67 70 73 75 77 79 79 78 77 74 72 71 69 68 68 69 70 70 71 71 71 70 69 67 64 63 61 59 58 57 58 58 59
50 50 50 52 54 56 58 59 59 59 58 57 57 56 56 57 57 58 58 59 59 60 60 61 61 61 61 61 61 61 61 61 61 61 62 62 63 64 65 65 64 64 63 62 61 60 59 59 59 61 64 67 70 73 76 78 79 81 81 80 79 77 75 74 73 72 72 73 73 72 72 71 70 69 67 65 63 61 60 58 58 58 58 59 60 61
50 50 51 53 56 58 59 60 59 59 58 57 57 57 57 58 58 58 59 59 60 60 60 61 61 61 61 61 61 62 62 62 61 61 62 62 63 63 63 62 62 61 60 59 59 59 59 61 64 67 70 72 74 76 78 79 80 81 80 80 79 78 77 75 74 73 74 74 73 72 71 69 67 65 64 62 61 59 58 58 58 59 60 60 61 62
50 51 53 55 57 59 60 60 59 59 59 59 59 59 59 60 60 60 60 60 60 60 61 61 61 61 61 61 61 61 61 61 61 61 61 62 61 61 61 60 60 59 59 60 61 62 64 66 69 71 74 76 77 78 79 78 79 79 79 79 79 78 77 76 74 74 74 73 72 71 69 67 65 63 62 61 60 59 58 59 59 60 61 62 62 62
51 52 54 57 59 60 60 60 60 60 61 62 62 62 62 62 62 62 62 62 61 61 61 61 61 61 61 61 61 61 61 60 60 60 61 61 61 60 60 60 60 61 62 63 65 67 69 71 73 74 75 76 78 79 79 78 78 77 77 77 77 77 76 75 74 73 72 71 70 68 67 66 65 64 63 61 61 60 60 61 61 62 62 62 62 61
52 53 56 58 60 61 61 61 62 63 64 65 66 66 66 66 66 66 65 65 64 64 64 63 63 63 63 62 62 62 62 62 62 62 62 63 63 63 64 64 65 66 68 69 71 72 73 74 74 74 75 75 77 78 78 78 78 77 77 76 76 75 74 74 73 72 71 70 69 68 67 66 66 65 65 64 63 64 64 64 64 64 64 63 62 61
52 54 56 59 60 61 62 63 64 66 68 69 69 70 69 69 69 69 69 69 69 69 68 68 67 67 67 67 66 66 65 66 67 67 68 68 69 69 70 71 72 73 74 75 76 76 77 77 76 74 73 74 75 77 78 78 78 78 77 76 76 75 74 74 74 74 74 73 72 71 70 69 69 68 68 68 67 67 67 67 67 66 65 63 61 61